[[{"header":{"parameterUnit":"m.s-1","parameterCategory":1,"la1":30.2991,"la2":30.254,"lo1":-89.0895,"lo2":-89.0444,"dy":0.0017,"dx":0.0017,"nx":28,"ny":28,"refTime":"2024-06-12T21:00:00:Z","depth":0,"parameterNumber":2,"parameterNumberName":"U-component_of_WINDS"},"data":[0,0,0,0,0,0,0,0,0,0,0,0,0,0,0,0,0,0,0,0,0,0,0,0,0,0,0,0,0,0,0,0,0,0,0,0,0,0,0,0,0,0,0,0,0,0,0,0,0,0,0,0,0,0,0,0,0,0,0.5666,0.5667,0,0.5693,0.5693,0.5693,0.5674,0.5673,0.5673,0.5672,0.5699,0.57,0.5701,0,0,0,0,0,0,0,0,0,0,0,0,0,0.56,0.5602,0.5666,0.5667,0.5667,0.5693,0.5693,0.5693,0.5674,0.5673,0.5672,0.5671,0.5698,0.57,0.5702,0,0,0,0,0,0,0,0,0,0,0,0,0,0.5628,0.5602,0.5666,0.5661,0.566,0.5693,0.5693,0.5694,0.5675,0.5673,0.5672,0.5671,0.5697,0.57,0.5702,0.5741,0,0,0.5709,0.571,0,0,0,0,0,0,0,0,0.5626,0.563,0.5661,0.5661,0.5661,0.5679,0.568,0.5709,0.5675,0.5669,0.5672,0.567,0.5693,0.5696,0.5703,0.5742,0.5743,0.5709,0.571,0.5711,0.5712,0,0,0,0,0,0,0,0.5625,0.5629,0.5677,0.5662,0.5661,0.5657,0.566,0.5685,0.5688,0.567,0.5668,0.5672,0.5693,0.5701,0.5704,0.5744,0.5709,0.5711,0.5712,0.5713,0.5819,0.582,0,0,0,0,0,0,0.5623,0.5628,0.5676,0.5678,0.564,0.5659,0.5662,0.5674,0.5688,0.5688,0.5673,0.5671,0.5698,0.5701,0.5705,0.5753,0.5711,0.5713,0.5715,0.5817,0.5819,0.582,0,0,0,0,0,0,0.5622,0.5628,0.5675,0.5652,0.5658,0.5662,0.5676,0.5676,0.5684,0.569,0.569,0.5681,0.5697,0.5701,0.5733,0.5753,0.5714,0.5716,0.5815,0.5818,0.582,0.5848,0,0,0,0,0,0,0.562,0.5627,0.5642,0.5653,0.5659,0.5702,0.5677,0.5677,0.5688,0.5686,0.5698,0.5698,0.5696,0.5729,0.5735,0.5756,0.5718,0.5814,0.5816,0.5819,0.5845,0.5851,0.5856,0,0,0,0,0,0.5618,0.5648,0.5643,0.5649,0.5678,0.5703,0.5707,0.5704,0.569,0.5705,0.5709,0.5698,0.575,0.5733,0.5739,0.576,0.5812,0.5816,0.5819,0.5843,0.585,0.5856,0,0,0,0,0,0,0.5639,0.5649,0.5643,0.5678,0.569,0.57,0.5719,0.5711,0.5727,0.5724,0.572,0.5723,0.5756,0.5761,0.5742,0.58,0.5779,0.5784,0.5795,0.5802,0.5807,0.5805,0.572,0,0,0,0,0,0.5648,0.5668,0.5676,0.5706,0.5712,0.5715,0.5726,0.5723,0.5735,0.5739,0.5746,0.5758,0.5777,0.579,0.5808,0.5846,0.5849,0.5864,0.587,0.5874,0.5878,0.59,0.5907,0.5831,0.5831,0.5831,0,0,0.5666,0.5674,0.5687,0.5711,0.5719,0.5741,0.5719,0.5742,0.5758,0.5743,0.5773,0.5778,0.5792,0.5827,0.5843,0.5833,0.59,0.5878,0.5881,0.5883,0.5904,0.5911,0.5918,0.5833,0.5833,0.5833,0,0,0.571,0.5718,0.5745,0.5755,0.5769,0.577,0.5777,0.5788,0.5791,0.5822,0.5811,0.5831,0.5863,0.5874,0.5883,0.5934,0.5925,0.594,0.5967,0.5989,0.5995,0.6,0.6019,0.6026,0.5944,0.5944,0.5944,0,0.5731,0.5762,0.5759,0.5784,0.5795,0.5784,0.5811,0.582,0.5839,0.5848,0.5836,0.5878,0.5886,0.5925,0.5937,0.5945,0.5953,0.5938,0.5994,0.6,0.6005,0.6023,0.603,0.5946,0.5946,0.5945,0.5945,0,0.5788,0.581,0.583,0.585,0.5863,0.5889,0.589,0.5904,0.5901,0.5904,0.5936,0.5946,0.5966,0.5975,0.5971,0.6014,0.6007,0.5995,0.5973,0.6014,0.6031,0.6038,0.5948,0.5948,0.5947,0.5947,0,0,0.5845,0.5864,0.5871,0.5881,0.5896,0.5913,0.5939,0.596,0.5973,0.5987,0.6009,0.6038,0.6028,0.6038,0.6036,0.6055,0.6096,0.6041,0.6041,0.6052,0.6145,0.6154,0.6162,0.6091,0.6092,0.6093,0.6144,0,0.589,0.5935,0.5935,0.5977,0.5998,0.5988,0.6011,0.6024,0.6028,0.6047,0.6051,0.6072,0.6056,0.6063,0.6082,0.6087,0.6115,0.6084,0.6112,0.6113,0.6109,0.6171,0.618,0.6228,0.6151,0.6152,0.6153,0,0.5949,0.5966,0.6011,0.6025,0.6034,0.6054,0.6074,0.6092,0.6106,0.6108,0.6121,0.6117,0.6144,0.6122,0.616,0.6139,0.6151,0.6155,0.6157,0.616,0.6135,0.6176,0.6243,0.625,0.6163,0.6162,0.6161,0,0.5987,0.6021,0.6053,0.6061,0.6078,0.6093,0.6101,0.6114,0.6127,0.6144,0.6153,0.6173,0.6184,0.62,0.6201,0.6185,0.624,0.6218,0.6243,0.6243,0.6255,0.6254,0.6326,0.6262,0.6262,0.6262,0.6262,0,0.6038,0.6066,0.607,0.6089,0.6121,0.612,0.6151,0.6158,0.617,0.6191,0.6184,0.6204,0.6204,0.6225,0.6226,0.6258,0.6263,0.6266,0.6266,0.6267,0.6266,0.6274,0.6271,0.6264,0.6263,0.6263,0.6263,0,0.6086,0.6089,0.6123,0.6137,0.6142,0.6164,0.6176,0.6195,0.62,0.6226,0.6233,0.6239,0.6263,0.6266,0.6294,0.6295,0.6334,0.6331,0.633,0.6329,0.6354,0.6352,0.6433,0.6444,0.6373,0.6374,0.6374,0,0.6118,0.6139,0.6156,0.617,0.6179,0.6201,0.6215,0.6215,0.623,0.6249,0.6266,0.629,0.6309,0.6348,0.6355,0.6377,0.6374,0.6401,0.6378,0.6378,0.6376,0.6375,0.6377,0.6406,0.6407,0.6407,0.6408,0,0.6175,0.6177,0.6197,0.6218,0.6235,0.6252,0.6267,0.6279,0.6282,0.6299,0.6324,0.6339,0.6368,0.6392,0.6414,0.6422,0.6416,0.6416,0.6423,0.6424,0.6423,0.6425,0.6343,0.6414,0.6413,0.6413,0.6412,0.6412,0.6216,0.6236,0.6251,0.6274,0.6287,0.6302,0.6321,0.6328,0.6349,0.6373,0.6373,0.64,0.6416,0.6445,0.6456,0.6478,0.6469,0.6479,0.6481,0.6484,0.6487,0.6419,0.6482,0.6482,0.6481,0.6481,0.6481,0,0.6274,0.6284,0.6305,0.6328,0.6347,0.634,0.6358,0.6374,0.6398,0.6414,0.6433,0.6463,0.6486,0.6497,0.652,0.6536,0.6534,0.6542,0.6541,0.6544,0.6493,0.6485,0.6544,0.6544,0.6544,0.6544,0.6544,0.6544,0.6306,0.6339,0.6343,0.6382,0.6392,0.6419,0.643,0.6445,0.6457,0.6491,0.6511,0.6517,0.6531,0.6556,0.6578,0.658,0.659,0.66,0.6601,0.6553,0.6547,0.6541,0.6533,0.6601,0.6602,0.665,0.665,0.6651]},{"header":{"parameterUnit":"m.s-1","parameterCategory":1,"la1":30.2991,"la2":30.254,"lo1":-89.0895,"lo2":-89.0444,"dy":0.0017,"dx":0.0017,"nx":28,"ny":28,"refTime":"2024-06-12T21:00:00:Z","depth":0,"parameterNumber":3,"parameterNumberName":"V-component_of_WINDS"},"data":[0,0,0,0,0,0,0,0,0,0,0,0,0,0,0,0,0,0,0,0,0,0,0,0,0,0,0,0,0,0,0,0,0,0,0,0,0,0,0,0,0,0,0,0,0,0,0,0,0,0,0,0,0,0,0,0,0,0,-1.7551,-1.7552,0,-1.762,-1.762,-1.7621,-1.7655,-1.7655,-1.7655,-1.7655,-1.7722,-1.7724,-1.7726,0,0,0,0,0,0,0,0,0,0,0,0,0,-1.7447,-1.7449,-1.7551,-1.7552,-1.7553,-1.7619,-1.762,-1.7621,-1.7655,-1.7655,-1.7655,-1.7655,-1.7722,-1.7724,-1.7726,0,0,0,0,0,0,0,0,0,0,0,0,0,-1.7501,-1.7449,-1.7551,-1.7578,-1.7581,-1.7619,-1.762,-1.7622,-1.7655,-1.7655,-1.7655,-1.7655,-1.7721,-1.7724,-1.7726,-1.7742,0,0,-1.7735,-1.7736,0,0,0,0,0,0,0,0,-1.7498,-1.7505,-1.7573,-1.7576,-1.758,-1.7629,-1.7608,-1.7662,-1.7655,-1.7627,-1.7655,-1.7655,-1.7691,-1.7696,-1.7709,-1.7745,-1.7748,-1.7735,-1.7736,-1.7738,-1.7738,0,0,0,0,0,0,0,-1.7494,-1.7502,-1.7578,-1.7574,-1.7578,-1.7586,-1.7593,-1.7619,-1.7658,-1.7629,-1.7632,-1.764,-1.7693,-1.7706,-1.7711,-1.7749,-1.7735,-1.7737,-1.7739,-1.774,-1.7801,-1.7801,0,0,0,0,0,0,-1.7487,-1.7499,-1.7576,-1.758,-1.7538,-1.7587,-1.7596,-1.7613,-1.7658,-1.7665,-1.764,-1.7641,-1.7702,-1.7708,-1.7713,-1.7735,-1.7737,-1.774,-1.7742,-1.7801,-1.7801,-1.7801,0,0,0,0,0,0,-1.7484,-1.7493,-1.7573,-1.754,-1.7551,-1.7589,-1.7608,-1.7614,-1.7628,-1.7666,-1.7673,-1.7646,-1.7702,-1.771,-1.7735,-1.7737,-1.7741,-1.7744,-1.7801,-1.7801,-1.7801,-1.7777,0,0,0,0,0,0,-1.7481,-1.7492,-1.7499,-1.754,-1.7553,-1.7595,-1.7608,-1.7616,-1.7633,-1.7635,-1.7674,-1.768,-1.7703,-1.7731,-1.7737,-1.7741,-1.7746,-1.7801,-1.7801,-1.7801,-1.7778,-1.7776,-1.7775,0,0,0,0,0,-1.7477,-1.7489,-1.75,-1.7509,-1.7563,-1.7595,-1.7602,-1.7628,-1.7633,-1.764,-1.7664,-1.7679,-1.7736,-1.7733,-1.7741,-1.7745,-1.7801,-1.7801,-1.7801,-1.7779,-1.7777,-1.7775,0,0,0,0,0,0,-1.7447,-1.7495,-1.7507,-1.7533,-1.756,-1.76,-1.761,-1.7625,-1.7651,-1.7652,-1.7683,-1.7691,-1.7713,-1.7732,-1.7728,-1.7763,-1.777,-1.7772,-1.775,-1.7748,-1.7747,-1.7742,-1.7748,0,0,0,0,0,-1.7444,-1.7466,-1.7507,-1.7526,-1.7538,-1.7572,-1.7587,-1.7605,-1.7633,-1.7644,-1.767,-1.7696,-1.772,-1.7735,-1.7759,-1.7781,-1.7789,-1.7787,-1.7786,-1.7785,-1.7786,-1.7798,-1.7797,-1.7802,-1.7802,-1.7802,0,0,-1.7436,-1.7465,-1.7478,-1.752,-1.7543,-1.7565,-1.7581,-1.7604,-1.762,-1.7648,-1.7673,-1.7693,-1.7724,-1.7747,-1.7759,-1.7764,-1.7786,-1.7785,-1.7783,-1.7785,-1.7798,-1.7797,-1.7797,-1.7802,-1.7802,-1.7802,0,0,-1.7434,-1.7459,-1.7477,-1.75,-1.7534,-1.7556,-1.756,-1.7599,-1.7613,-1.764,-1.7661,-1.768,-1.772,-1.7742,-1.7758,-1.7763,-1.7777,-1.7769,-1.7762,-1.7774,-1.7773,-1.7773,-1.7775,-1.7775,-1.777,-1.777,-1.777,0,-1.7421,-1.7456,-1.7484,-1.7506,-1.7524,-1.755,-1.7568,-1.7588,-1.7628,-1.7639,-1.7644,-1.7695,-1.7718,-1.7746,-1.7748,-1.776,-1.7765,-1.7765,-1.7771,-1.7771,-1.7771,-1.7773,-1.7774,-1.7769,-1.7769,-1.7769,-1.7769,0,-1.7437,-1.7461,-1.7471,-1.751,-1.7529,-1.7549,-1.7579,-1.7595,-1.7611,-1.7632,-1.7658,-1.7686,-1.7716,-1.7724,-1.7739,-1.7754,-1.7756,-1.7765,-1.7773,-1.7769,-1.7772,-1.7773,-1.7767,-1.7768,-1.7768,-1.7768,0,0,-1.7419,-1.7473,-1.7476,-1.7494,-1.7533,-1.7552,-1.7572,-1.7602,-1.7615,-1.7641,-1.7658,-1.7691,-1.77,-1.7718,-1.7737,-1.7747,-1.7748,-1.7755,-1.7756,-1.7753,-1.7766,-1.7758,-1.7759,-1.7758,-1.7758,-1.7758,-1.7763,0,-1.7423,-1.7462,-1.7487,-1.7516,-1.7537,-1.7562,-1.758,-1.7605,-1.7625,-1.7646,-1.7667,-1.769,-1.7701,-1.7712,-1.7723,-1.7746,-1.7751,-1.7746,-1.7774,-1.7774,-1.7765,-1.776,-1.7753,-1.7756,-1.7764,-1.7764,-1.7764,0,-1.7432,-1.7459,-1.7489,-1.7526,-1.7536,-1.7551,-1.7581,-1.76,-1.7629,-1.7643,-1.7663,-1.7681,-1.7703,-1.7708,-1.7738,-1.7733,-1.7746,-1.7759,-1.776,-1.7763,-1.7769,-1.7763,-1.7757,-1.7758,-1.7766,-1.7766,-1.7766,0,-1.7416,-1.7459,-1.7483,-1.7497,-1.754,-1.755,-1.7568,-1.7598,-1.7614,-1.7639,-1.7649,-1.7676,-1.7691,-1.7711,-1.7736,-1.7738,-1.7762,-1.777,-1.7774,-1.7773,-1.7778,-1.7777,-1.7774,-1.7786,-1.7786,-1.7786,-1.7786,0,-1.7417,-1.7435,-1.7476,-1.749,-1.751,-1.7539,-1.7558,-1.7578,-1.7604,-1.7622,-1.7644,-1.7661,-1.7692,-1.7712,-1.7731,-1.7753,-1.7759,-1.777,-1.7775,-1.7768,-1.7767,-1.7777,-1.7778,-1.7786,-1.7786,-1.7786,-1.7786,0,-1.7403,-1.7431,-1.7458,-1.7497,-1.7507,-1.752,-1.7552,-1.7567,-1.7588,-1.761,-1.7617,-1.765,-1.7674,-1.7701,-1.7734,-1.7747,-1.7767,-1.7774,-1.7758,-1.7761,-1.7762,-1.7762,-1.7765,-1.7767,-1.7778,-1.7778,-1.7778,0,-1.7402,-1.7416,-1.7456,-1.747,-1.7488,-1.7511,-1.7528,-1.7556,-1.7572,-1.7606,-1.7616,-1.7642,-1.7665,-1.7703,-1.7729,-1.7754,-1.7762,-1.7761,-1.7766,-1.7758,-1.7762,-1.7761,-1.7762,-1.776,-1.776,-1.7759,-1.7759,0,-1.7398,-1.7411,-1.7434,-1.7463,-1.7482,-1.7506,-1.753,-1.754,-1.7573,-1.759,-1.7615,-1.7633,-1.7667,-1.7693,-1.7721,-1.7739,-1.7754,-1.7758,-1.776,-1.7753,-1.7743,-1.7748,-1.7754,-1.7757,-1.7758,-1.7758,-1.7758,-1.7758,-1.739,-1.7404,-1.7434,-1.7459,-1.748,-1.7502,-1.7518,-1.7541,-1.7563,-1.7594,-1.7609,-1.7634,-1.7661,-1.7701,-1.7719,-1.7738,-1.7743,-1.7746,-1.7747,-1.7747,-1.7745,-1.7739,-1.7743,-1.7743,-1.7744,-1.7744,-1.7744,0,-1.7387,-1.7407,-1.743,-1.7464,-1.7483,-1.7497,-1.7524,-1.7539,-1.7562,-1.7586,-1.7608,-1.7637,-1.7662,-1.769,-1.7716,-1.7726,-1.7734,-1.7732,-1.7732,-1.7735,-1.774,-1.7735,-1.7726,-1.7726,-1.7726,-1.7726,-1.7726,-1.7726,-1.7387,-1.7411,-1.7427,-1.7461,-1.7482,-1.7507,-1.7522,-1.7542,-1.7562,-1.7593,-1.7614,-1.7632,-1.7658,-1.7686,-1.7709,-1.7716,-1.7725,-1.7721,-1.773,-1.7734,-1.7735,-1.7737,-1.7733,-1.7723,-1.7723,-1.7725,-1.7725,-1.7725]}]]